Location: Pine Mountain Observatory
(43.7910°N, 120.9377°W)
Time: 20:33:18
(UTC-07:00)

Daily predictions for brighter satellites

Satellite Brightness Start Highest point End
(mag) Time Altitude Azimuth Time Altitude Azimuth Time Altitude Azimuth
ATLAS 3B R/B 3.2 21:01:38 10° S 21:08:51 46° ESE 21:15:58 10° NE
Cosmos 1666 3.9 21:07:08 10° NNW 21:10:53 45° W 21:14:36 10° SSW
Lacrosse 5 4.4 21:08:50 10° NW 21:12:21 18° N 21:15:52 10° NE
CZ-4 DEB 4.5 21:10:23 10° SSW 21:13:21 33° W 21:16:20 10° NNW
Cosmos 2034 Rocket 4.3 21:08:24 10° N 21:14:46 75° W 21:21:03 10° S
GRACE-1 3.9 21:14:46 10° N 21:17:38 69° E 21:20:29 10° S
GRACE-2 3.9 21:15:13 10° N 21:18:05 69° E 21:20:55 10° S
H-2A R/B 4.1 21:16:43 10° E 21:18:45 12° ENE 21:20:49 10° NNE
Cosmos 2369 Rocket 2.3 21:14:43 10° NNW 21:20:23 69° ENE 21:25:59 10° SSE
YAOGAN 6 4.1 21:18:45 10° ESE 21:21:46 24° ENE 21:24:48 10° NNE
ERS-1 Rocket 3.3 21:19:56 10° S 21:24:55 68° WSW 21:29:57 10° NNW
DEBRIS 4.0 21:21:07 10° WNW 21:26:13 32° SW 21:28:32 10° SSE
SPOT 1/Viking Rocket 4.4 21:22:50 10° SE 21:27:27 34° ENE 21:32:05 10° N
COSMOS 2455 3.1 21:23:35 10° SW 21:29:35 76° WNW 21:35:38 10° NNE
USA 234 4.0 21:25:56 10° E 21:32:10 48° NNE 21:38:25 10° NW
CZ-2C R/B 2.8 21:32:55 10° SSW 21:34:45 21° W 21:36:36 10° NW
Cosmos 1758 Rocket 4.3 21:34:37 10° SSE 21:38:36 35° E 21:42:34 10° NNE
Envisat 3.1 21:38:17 10° SSE 21:43:23 85° WSW 21:48:30 10° NNW
Cosmos 1515 3.9 21:40:49 10° SSW 21:44:40 77° W 21:48:33 10° N
SL-27 R/B 3.8 21:44:18 15° SE 21:45:44 19° E 21:48:13 10° NE
GEOS 3 Rocket 4.3 21:40:56 10° SSE 21:46:01 48° WSW 21:51:05 10° NW
Cosmos 407 Rocket 3.5 21:41:21 10° S 21:46:30 60° ESE 21:51:38 10° NNE
BREEZE-M DEB (TANK) 1.9 21:45:07 10° WSW 21:48:56 89° N 21:51:00 10° ENE
Cosmos 1825 Rocket 3.6 21:49:33 10° S 21:54:00 89° ESE 21:58:27 10° N
Cosmos 2263 4.2 21:50:33 10° NNW 21:56:13 87° WSW 22:01:02 14° SSE
USA 238 DEB 4.2 21:50:13 10° S 21:56:42 39° ESE 22:03:09 10° NE
USA 238 4.2 21:50:20 10° S 21:56:47 39° ESE 22:03:14 10° NE
MetOp-A 4.2 21:54:19 11° SSE 21:59:27 90° WSW 22:04:51 10° NNW
Lacrosse 4 Rocket 1.5 21:57:41 10° SW 22:01:44 75° WNW 22:05:52 10° NNE
UNK 4.2 21:58:33 10° NNE 22:04:04 83° ESE 22:09:53 10° SSW
ISS -1.2 22:01:40 10° W 22:04:37 30° NNW 22:07:34 10° NE
Cosmos 1066 Rocket 4.4 22:00:56 10° SSW 22:06:40 80° W 22:12:33 10° N
Cosmos 2084 3.6 22:03:17 10° NNW 22:07:23 65° NE 22:10:11 21° SE
COSMOS 2406 3.9 22:03:21 13° SSE 22:07:46 35° ESE 22:12:55 10° NE
Cosmos 1954 Rocket 4.2 22:02:53 10° S 22:08:03 54° ESE 22:13:12 10° NNE
Cosmos 1943 Rocket 2.3 22:03:54 10° NNW 22:09:27 68° ENE 22:13:25 20° SE
H-2A R/B 4.1 22:09:55 10° SSW 22:13:24 24° W 22:16:58 10° NW
CZ-4C R/B 3.8 22:11:59 22° SE 22:14:20 47° ENE 22:18:08 10° N
SeaSat 1 2.6 22:12:25 18° SSE 22:16:07 73° WSW 22:21:05 10° NNW
Cosmos 2208 Rocket 4.5 22:15:52 10° N 22:20:53 47° ENE 22:23:56 22° SE
Atlas Centaur 2 3.9 22:16:04 10° WSW 22:21:57 27° S 22:25:27 20° SSE
Cosmos 1943 4.2 22:17:37 10° SW 22:23:07 49° WNW 22:28:39 10° NNE
Landsat 7 4.1 22:20:31 23° SE 22:23:18 53° ENE 22:27:57 10° N
PSLV R/B 3.8 22:22:37 10° W 22:26:00 42° SSW 22:26:59 33° SSE
Cosmos 1953 2.5 22:22:58 10° N 22:26:54 54° E 22:28:40 29° SE
Lacrosse 5 rocket 4.3 22:26:25 10° NNW 22:28:22 13° N 22:30:22 10° NNE
CZ-4 R/B 3.9 22:27:07 10° NNE 22:32:10 87° ESE 22:36:37 13° SSW
CZ-4B R/B 3.9 22:27:34 10° N 22:32:40 67° WNW 22:37:50 10° SSW
Cosmos 1741 Rocket 4.4 22:30:05 23° SSE 22:32:58 44° ESE 22:38:00 10° NNE
Cosmos 1346 Rocket 4.2 22:32:02 10° SW 22:35:41 37° WNW 22:39:24 10° N
Cosmos 2221 4.5 22:33:48 10° NNE 22:36:28 16° ENE 22:37:48 14° E
Cosmos 1842 3.2 22:36:20 22° SSW 22:38:48 83° W 22:42:44 10° N
Terra 2.1 22:36:48 28° SE 22:39:07 54° ENE 22:43:46 10° N
Cosmos-2242 3.0 22:35:05 10° N 22:39:31 87° W 22:41:48 28° S
Spot 4 4.4 22:38:04 26° SE 22:40:17 45° ENE 22:44:51 10° N
Cosmos 1023 Rocket 4.4 22:38:32 17° S 22:42:39 72° ESE 22:47:54 10° NNE
ARGOS 3.5 22:41:02 20° S 22:44:46 64° WSW 22:50:11 10° NNW
Nadezhda 4 Rocket 4.1 22:42:56 23° SSE 22:46:54 63° E 22:53:09 10° NNE
Cosmos 1850 Rocket 4.0 22:45:13 24° S 22:48:20 62° ESE 22:53:29 10° NNE
Cosmos 1140 Rocket 3.4 22:46:24 16° SSW 22:50:35 83° ESE 22:55:51 10° NNE
Cosmos 1570 Rocket 4.0 22:47:09 10° NNW 22:52:33 86° WSW 22:55:11 31° SSE
SL-8 R/B 3.6 22:50:04 10° WNW 22:54:55 79° SSW 22:57:00 34° SE
Lacrosse 5 3.9 22:52:48 10° NW 22:56:53 24° NNE 23:00:56 10° ENE
H-2A R/B 1.9 22:54:58 32° SSE 22:57:20 86° ENE 23:02:29 10° NNW
ATLAS 3B R/B 3.9 22:52:15 10° WSW 22:59:39 49° NW 23:06:51 10° NNE
Cosmos 2369 Rocket 4.3 23:00:07 10° WNW 23:03:46 18° W 23:07:24 10° SW
SAR-Lupe-2 3.7 23:06:53 47° SSW 23:07:41 64° WSW 23:11:16 10° NNW
Cosmos 1607 3.9 23:01:54 10° SSW 23:08:11 85° ESE 23:14:26 10° NE
Cosmos 614 Rocket 3.9 23:07:38 29° S 23:10:19 79° ESE 23:15:34 10° NNE
Cosmos 1544 3.0 23:06:37 10° N 23:10:23 79° E 23:10:59 60° SSE
Cosmos 1340 2.8 23:10:35 50° ESE 23:10:49 51° E 23:14:31 10° NNE
NOSS 3-2 (A) 3.7 23:10:05 32° S 23:12:36 49° ESE 23:18:55 10° NE
Spot 2 4.4 23:09:50 10° NNE 23:14:45 89° ESE 23:17:10 32° SSW
USA 234 3.3 23:11:49 32° SSE 23:15:03 64° SW 23:21:34 10° NW
Cosmos 1758 4.4 23:11:46 10° NNW 23:15:39 41° W 23:17:15 28° SW
CARTOSAT-1 3.9 23:16:15 37° SSW 23:17:42 57° W 23:21:59 10° NNW
Cosmos 1655 Rocket 4.5 23:18:06 33° SE 23:20:17 45° E 23:26:11 10° NNE
Okean 3 Rocket 3.5 23:22:49 53° SSE 23:23:41 69° E 23:28:07 10° NNE
Cosmos 2026 Rocket 4.2 23:24:08 36° SE 23:26:09 51° E 23:32:00 10° NNE
Meteor 2-5 Rocket 3.7 23:25:22 38° S 23:27:41 73° E 23:33:26 10° NNE
Cosmos 1470 2.6 23:25:50 10° N 23:29:44 81° W 23:30:11 67° SSW
COSMOS 2487 2.9 23:32:57 50° WSW 23:33:34 60° WNW 23:37:10 10° NNE
IGS 5A 4.2 23:32:50 36° SW 23:33:52 43° W 23:37:51 10° NNW
Meteor 1-16 Rocket 4.3 23:29:23 10° N 23:35:03 68° ENE 23:36:58 42° SE
CZ-4C R/B 2.1 23:33:48 41° S 23:35:35 64° ESE 23:41:29 10° NE
Cosmos 1408 Rocket 4.1 23:35:24 40° ESE 23:35:40 41° E 23:39:53 10° NNE
DMSP B5D2-2 4.5 23:31:50 10° N 23:37:03 61° WNW 23:39:57 26° SW
Meteor 2-1 Rocket 4.5 23:31:21 10° N 23:37:12 60° ENE 23:39:06 41° SE
Cosmos 405 Rocket 4.2 23:38:03 25° ENE 23:38:03 25° ENE 23:40:35 10° NE
Cosmos 1627 Rocket 4.4 23:37:34 40° S 23:39:51 74° E 23:45:59 10° NNE
Cosmos 2278 4.0 23:35:44 10° NNW 23:41:20 59° ENE 23:43:20 38° ESE
ISS -0.6 23:39:14 10° NW 23:41:45 20° N 23:44:16 10° NE
CZ-4B R/B 3.4 23:45:06 22° ENE 23:45:17 22° ENE 23:48:12 10° NNE
Cosmos 2344 4.2 23:45:48 32° SE 23:47:37 36° ESE 23:55:08 10° NE
ALOS 2 3.8 23:46:57 29° E 23:47:45 31° ENE 23:51:37 10° N
Cosmos 1697 Rocket 4.2 23:46:49 10° N 23:51:39 28° NE 23:54:45 18° E
Cosmos 1943 Rocket 4.1 23:48:59 10° WNW 23:52:36 18° W 23:54:56 14° SW
Cosmos 1818 3.5 23:48:47 10° NW 23:54:18 87° NE 23:55:44 51° SE
H-2A R/B 3.6 23:52:12 10° NE 23:54:55 28° ENE 23:54:55 28° ENE
